{"data":{"norad_id":65426,"epoch":"2026-09-20T20:36:37.213920Z","epoch_age_seconds":83910,"freshness":"FRESH","line1":"1 65426U 25192Y   26263.85876405  .00015622  00000+0  51388-3 0  9997","line2":"2 65426  53.1611  44.5188 0001089  81.9771 278.1354 15.31715408 59271","mean_motion":15.31715408,"eccentricity":0.0001089,"inclination_deg":53.1611,"raan_deg":44.5188,"arg_perigee_deg":81.9771,"mean_anomaly_deg":278.1354,"bstar":0.00051388,"rev_number":5927,"period_min":94.012242253295,"perigee_km":469.94822746144,"apogee_km":471.43990286744,"semimajor_km":6848.8310651644,"source":"CELESTRAK","updated_at":"2026-09-21T09:00:35.606751Z"}}